Regional Weather Roundup
Issued by NWS

Home | Current Version | Previous Version | Graphics & Text | Print | Product List | Glossary Off
Versions: 1 2 3 4 5 6 7 8 9 10 11 12 13 14 15 16 17 18 19 20 21 22 23 24 25 26 27 28 29 30 31 32 33 34 35 36 37 38 39 40 41 42 43 44 45 46 47 48 49 50

000
ASUS43 KMKX 302159
RWRWI

WISCONSIN REGIONAL WEATHER ROUNDUP
NATIONAL WEATHER SERVICE MILWAUKEE/SULLIVAN WI
400 PM CST FRI JAN 30 2015

NOTE: "FAIR" INDICATES FEW OR NO CLOUDS BELOW 12,000 FEET WITH NO
SIGNIFICANT WEATHER AND/OR OBSTRUCTIONS TO VISIBILITY.

WIZ001-002-006>008-014>016-023>028-302300-
NORTHWEST WISCONSIN

CITY           SKY/WX    TMP DP  RH WIND       PRES   REMARKS
SUPERIOR ARPT  CLOUDY    18   5  56 SW9       30.32F WCI   7
ASHLAND        CLOUDY    18   3  52 S6        30.33F WCI  10
HAYWARD        CLOUDY    16   2  54 S9        30.31F WCI   4
SIREN          CLOUDY    19   6  55 S7        30.32F WCI  10
CUMBERLAND     PTCLDY    18   5  57 S6        30.32F WCI   9
RICE LAKE      PTCLDY    18   6  59 S5        30.36F WCI  11
CHETEK         PTCLDY    17   6  61 S3        30.36F
LADYSMITH      MOCLDY    16   5  62 S7        30.36F WCI   7
EAU CLAIRE     PTCLDY    19   5  54 S7        30.36F WCI  10
MENOMONIE      SUNNY     21   8  57 S8        30.37F WCI  12
NEW RICHMOND   SUNNY     21  11  65 S9        30.34F WCI  10
OSCEOLA        SUNNY     24  12  61 S9        30.36F WCI  14
$$

WIZ003>005-009-010-017-018-302300-
NORTH CENTRAL WISCONSIN

CITY           SKY/WX    TMP DP  RH WIND       PRES   REMARKS
MANITOWISH WTR CLOUDY    16   3  57 SW8       30.29F WCI   5
ARBOR VITAE    CLOUDY    19   4  52 SW7       30.29F WCI  10
WOODRUFF       CLOUDY    19   4  52 SW7       30.29F WCI  10
RHINELANDER    CLOUDY    17   2  51 SW8       30.30F WCI   7
EAGLE RIVER    MOCLDY    17   1  51 SW10      30.29F WCI   4
LAND O LAKES   CLOUDY    18   2  51 SW6       30.29S WCI   9
PHILLIPS       CLOUDY    16   3  56 SW6       30.31F WCI   7
TOMAHAWK       CLOUDY    19   2  48 CALM      30.32F
MEDFORD        PTCLDY    14   5  66 SW7       30.33F WCI   4
MERRILL        PTCLDY    17   5  59 SW6       30.35F WCI   8
$$

WIZ029-030-035-036-043>047-302300-
CENTRAL WISCONSIN

CITY           SKY/WX    TMP DP  RH WIND       PRES   REMARKS
WAUSAU         MOCLDY    17   5  59 SW6       30.34F WCI   9
MOSINEE        PTCLDY    18   7  62 SW6       30.37F WCI   9
MARSHFIELD     MOCLDY    18   6  59 CALM      30.35F
STEVENS POINT  MOCLDY    18   4  53 W5        30.38F WCI  11
WAUPACA        PTCLDY    24   5  45 SW5       30.40F WCI  18
WAUTOMA        NOT AVBL
WISC RAPIDS    MOCLDY    20   6  55 S6        30.40F WCI  12
CAMP DOUGLAS   NOT AVBL
$$

WIZ011>013-019>022-031-037>040-048>050-302300-
NORTHEAST WISCONSIN

CITY           SKY/WX    TMP DP  RH WIND       PRES   REMARKS
ANTIGO         CLOUDY    16   5  61 SW8       30.32F WCI   5
SHAWANO        CLOUDY    22   7  53 S5        30.39F WCI  16
OCONTO         CLOUDY    19   8  64 MISG      30.41F
STURGEON BAY   CLOUDY    18   5  57 W7        30.42F WCI   8
GREEN BAY      MOCLDY    21   9  59 SW5       30.40F WCI  15
MANITOWOC      NOT AVBL
APPLETON       MOCLDY    19   7  58 SW8       30.39F WCI   9
CLINTONVILLE   CLOUDY    21   7  53 SW6       30.39F WCI  14
OSHKOSH        MOCLDY    22   8  55 SW6       30.40F WCI  14
$$

WIZ032>034-041-042-053>061-302300-
SOUTHWEST WISCONSIN

CITY           SKY/WX    TMP DP  RH WIND       PRES   REMARKS
LA CROSSE      MOSUNNY   26   8  46 S7        30.40F WCI  18
SPARTA         SUNNY     23   8  52 W3        30.41F
VIROQUA        MOSUNNY   24   9  52 S7        30.37F WCI  16
BOSCOBEL       SUNNY     27   8  44 SW6       30.42F WCI  20
PRAIRIE DU CHI SUNNY     27   7  43 S3        30.44F
PLATTEVILLE    SUNNY     26  12  55 S6        30.41F WCI  19
$$

WIZ056-057-062-063-064-067-068-302300-
SOUTH CENTRAL WISCONSIN

CITY           SKY/WX    TMP DP  RH WIND       PRES   REMARKS
REEDSBURG      PTCLDY    23   9  54 SW6       30.40F WCI  16
BARABOO/DELLS  MOCLDY    24   9  52 W7        30.39F WCI  16
LONE ROCK      NOT AVBL
MINERAL POINT  SUNNY     27  10  50 SW6       30.40F WCI  20
MADISON        PTCLDY    25   7  46 S6        30.40F WCI  18
MIDDLETON      MOCLDY    28   8  41 SW7       30.41F WCI  21
WATERTOWN      CLEAR     24  10  56 SW7       30.41F WCI  16
MONROE         SUNNY     27  16  63 S6        30.41F WCI  20
JANESVILLE     CLEAR     27  10  50 W8        30.43F WCI  18
$$

WIZ051-052-058>065-066-070>072-302300-
SOUTHEAST WISCONSIN

CITY           SKY/WX    TMP DP  RH WIND       PRES   REMARKS
MILWAUKEE      PTCLDY    27   6  41 SW10      30.43F WCI  17
WAUKESHA       CLEAR     23   7  50 W9        30.44S WCI  13
MILWAUKEE/TIMM CLEAR     27   3  36 W7        30.44F WCI  19
RACINE         CLEAR     25  12  58 S6        30.45F WCI  18
BURLINGTON     CLEAR     24   9  52 W8        30.43F WCI  16
KENOSHA        CLEAR     27   9  46 W6        30.43F WCI  20
FOND DU LAC    MOCLDY    22   8  55 SW7       30.40F WCI  13
SHEBOYGAN      CLEAR     24   8  50 W6        30.41F WCI  17
WEST BEND      CLEAR     25   5  42 W9        30.42S WCI  15
JUNEAU         CLEAR     22  10  57 SW7       30.42F WCI  14
$$

LSZ147-162-302300-
LAKE SUPERIOR

STATION/POSITION TIME  TEMP    WIND        PRES    WAVE
                       AIR SEA DIR/SP/G            HT/PER
                 (UTC) (F)     (DEG/KT/KT) (MB)    (FT/S)
DEVILS ISLAND    2100   16     220/  4/  6 1029.5F
PORT WING        2100   17     200/  8/ 10 1027.8
SAXON HARBOR     2140   19     190/  5/ 12 1027.4F
$$

LMZ867-665-643>646-302300-
LAKE MICHIGAN

STATION/POSITION TIME  TEMP    WIND        PRES    WAVE
                       AIR SEA DIR/SP/G            HT/PER
                 (UTC) (F)     (DEG/KT/KT) (MB)    (FT/S)
NORTHPORT PIER   2113   18     260/  4/  6 1030.1F
SISTER BAY       2043   32        CALM       N/A
KEWAUNEE LAKESHO 2100   21     210/  4/  7 1029.6F
SHEBOYGAN LAKESH 2100   20     130/  6/  7 1032.1F
PORT WASHINGTON  2140   24     180/  6/  9 1031.2F
MILWAUKEE LAKESH 2100   23     130/  5/  7   N/A
KENOSHA   LAKESH 2100   28     130/  6/  8 1031.2F
$$

TC  - TEMPERATURE IN CELSIUS
VSB - VISIBILITY IN STATUTE MILES
WCI - WIND CHILL INDEX
HX  - HEAT INDEX




USA.gov is the U.S. government's official web portal to all federal, state and local government web resources and services.